Weather History for KCKV - January, 2014

Change the Weather History Date:

Thursday, January 2, 2014

  Actual Average Record
Temperature  
Mean Temperature 29 °F -  
Max Temperature 41 °F - 71 °F (1965)
Min Temperature 17 °F - 2 °F (1977)
Degree Days  
Heating Degree Days 36    
Month to date heating degree days  
Since 1 July heating degree days  
Cooling Degree Days 0    
Month to date cooling degree days  
Moisture  
Dew Point 25 °F    
Average Humidity 83    
Maximum Humidity 100    
Minimum Humidity 65    
Precipitation  
Precipitation 0.03 in - 1.90 in (1966)
Month to date precipitation  
Sea Level Pressure  
Sea Level Pressure 30.10 in    
Wind  
Wind Speed 9 mph (NW)    
Max Wind Speed 25 mph    
Max Gust Speed 34 mph    
Visibility 7 miles    
Events Fog , Rain , Snow    
T = Trace of Precipitation, MM = Missing Value Source: NWS Daily Summary

Daily Weather History Graph

Daily Weather History Graph

Search for Another Location

Airport or City:

Trip Planner

Search our weather history database for the weather conditions in past years. The results will help you decide how hot, cold, wet, or windy it might be!

Date:

Astronomy

Jan. 02, 2014 Rise Set
Actual Time 7:02 AM CST 4:45 PM CST
Civil Twilight 6:33 AM CST 5:14 PM CST
Nautical Twilight 6:01 AM CST 5:46 PM CST
Astronomical Twilight 5:29 AM CST 6:17 PM CST
Moon 7:46 AM CST (1/2) 6:38 PM CST (1/2)
Length of Visible Light 10h 40m
Length of Day
9h 43m
Waxing Crescent, 3% of the Moon is Illuminated
Jan 2
Waxing Crescent
Jan 7
First Quarter
Jan 15
Full
Jan 23
Last Quarter
Jan 30
New

Hourly Weather History & Observations

Time (CST) Temp. Windchill Dew Point Humidity Pressure Visibility Wind Dir Wind Speed Gust Speed Precip Events Conditions
12:27 AM 41.0 °F - 37.4 °F 87% 29.97 in 10.0 mi Calm Calm - 0.00 in Rain Light Rain
12:52 AM 39.9 °F 36.7 °F 37.0 °F 89% 29.96 in 10.0 mi ESE 4.6 mph - 0.01 in Rain Light Rain
1:15 AM 39.2 °F 34.2 °F 37.4 °F 93% 29.94 in 10.0 mi SE 6.9 mph - 0.00 in   Overcast
1:52 AM 41.0 °F 39.0 °F 39.0 °F 93% 29.94 in 5.0 mi ESE 3.5 mph - 0.00 in Rain Light Rain
2:17 AM 41.0 °F - 39.2 °F 93% 29.93 in 9.0 mi Calm Calm - 0.00 in   Overcast
2:52 AM 41.0 °F - 39.0 °F 93% 29.93 in 10.0 mi Calm Calm - 0.00 in   Overcast
3:20 AM 41.0 °F 39.0 °F 39.2 °F 93% 29.92 in 4.0 mi North 3.5 mph - 0.00 in Rain Light Rain
3:33 AM 41.0 °F - 39.2 °F 93% 29.91 in 4.0 mi Calm Calm - 0.00 in   Overcast
3:52 AM 41.0 °F - 39.0 °F 93% 29.91 in 4.0 mi Calm Calm - 0.00 in   Overcast
4:19 AM 39.2 °F - 39.2 °F 100% 29.89 in 2.0 mi Calm Calm - 0.00 in Rain Light Rain
4:29 AM 39.2 °F - 39.2 °F 100% 29.88 in 2.5 mi Calm Calm - 0.00 in   Overcast
4:52 AM 39.9 °F - 39.9 °F 100% 29.88 in 2.0 mi Calm Calm - 0.00 in   Overcast
5:33 AM 39.2 °F - 39.2 °F 100% 29.87 in 3.0 mi Calm Calm - 0.01 in Rain Light Rain
5:52 AM 39.9 °F 37.8 °F 39.0 °F 97% 29.88 in 2.5 mi West 3.5 mph - 0.01 in Rain Light Rain
5:59 AM 39.2 °F 37.0 °F 39.2 °F 100% 29.87 in 2.5 mi WNW 3.5 mph - 0.00 in Rain Light Rain
6:06 AM 41.0 °F 38.0 °F 39.2 °F 93% 29.87 in 3.0 mi WNW 4.6 mph - 0.00 in Rain Light Rain
6:22 AM 41.0 °F 35.2 °F 39.2 °F 93% 29.88 in 6.0 mi WNW 9.2 mph - 0.00 in Rain Light Rain
6:52 AM 39.9 °F 31.8 °F 37.0 °F 89% 29.91 in 10.0 mi NW 15.0 mph 24.2 mph 0.00 in Rain Light Rain
7:52 AM 34.0 °F 22.1 °F 32.0 °F 92% 29.96 in 5.0 mi NW 21.9 mph 27.6 mph 0.01 in Snow Light Snow
7:58 AM 33.8 °F 22.8 °F 30.2 °F 87% 29.96 in 1.8 mi NNW 18.4 mph 27.6 mph 0.00 in Snow Light Snow
8:18 AM 32.0 °F 19.8 °F 28.4 °F 87% 29.97 in 0.5 mi NW 20.7 mph 29.9 mph 0.00 in Fog , Snow Snow
8:52 AM 28.0 °F 14.9 °F 25.0 °F 88% 30.01 in 0.2 mi NW 19.6 mph 32.2 mph 0.00 in Fog , Snow Heavy Snow
9:00 AM 28.4 °F 16.6 °F 26.6 °F 93% 30.01 in 0.8 mi NW 16.1 mph 31.1 mph 0.00 in Snow Light Snow
9:11 AM 28.4 °F 15.8 °F 24.8 °F 86% 30.02 in 1.5 mi NW 18.4 mph 29.9 mph 0.00 in Snow Light Snow
9:19 AM 26.6 °F 12.4 °F 24.8 °F 93% 30.03 in 3.0 mi NW 21.9 mph 31.1 mph 0.00 in Snow Light Snow
9:52 AM 27.0 °F 11.9 °F 21.0 °F 78% 30.06 in 10.0 mi NW 25.3 mph 32.2 mph 0.00 in   Overcast
10:04 AM 26.6 °F 13.1 °F 21.2 °F 80% 30.06 in 9.0 mi NNW 19.6 mph 31.1 mph N/A   Overcast
10:52 AM 25.0 °F 9.2 °F 19.0 °F 78% 30.09 in 10.0 mi NW 25.3 mph 32.2 mph N/A   Overcast
11:52 AM 25.0 °F 11.3 °F 18.0 °F 75% 30.10 in 10.0 mi NW 18.4 mph 33.4 mph N/A   Overcast
12:52 PM 24.1 °F 9.4 °F 17.1 °F 75% 30.12 in 10.0 mi NW 20.7 mph 29.9 mph N/A   Overcast
1:52 PM 24.1 °F 8.7 °F 16.0 °F 71% 30.14 in 10.0 mi NW 23.0 mph 29.9 mph N/A   Overcast
2:52 PM 23.0 °F 9.2 °F 16.0 °F 74% 30.17 in 10.0 mi NW 17.3 mph 32.2 mph N/A   Overcast
3:52 PM 23.0 °F 8.7 °F 14.0 °F 68% 30.20 in 9.0 mi NW 18.4 mph 31.1 mph 0.00 in   Overcast
4:00 PM 23.0 °F 7.2 °F 15.8 °F 74% 30.19 in 8.0 mi NW 23.0 mph 29.9 mph N/A   Overcast
4:52 PM 23.0 °F 8.0 °F 15.1 °F 72% 30.24 in 9.0 mi NW 20.7 mph 28.8 mph 0.00 in   Overcast
5:52 PM 21.9 °F 6.2 °F 15.1 °F 75% 30.28 in 7.0 mi NW 21.9 mph 27.6 mph 0.00 in Snow Light Snow
6:52 PM 21.9 °F 7.8 °F 14.0 °F 72% 30.32 in 10.0 mi NNW 17.3 mph 27.6 mph 0.00 in   Overcast
7:27 PM 21.2 °F 5.6 °F 12.2 °F 68% 30.32 in 10.0 mi NNW 20.7 mph - N/A   Overcast
7:52 PM 21.0 °F 4.6 °F 10.9 °F 65% 30.34 in 10.0 mi NNW 23.0 mph 28.8 mph N/A   Mostly Cloudy
8:02 PM 19.4 °F 3.6 °F 10.4 °F 68% 30.32 in 10.0 mi NNW 19.6 mph 26.5 mph N/A   Overcast
8:52 PM 19.9 °F 4.3 °F 12.0 °F 71% 30.37 in 9.0 mi NNW 19.6 mph 26.5 mph 0.00 in   Overcast
9:02 PM 19.4 °F 5.0 °F 12.2 °F 74% 30.34 in 10.0 mi North 16.1 mph - N/A   Overcast
9:28 PM 19.4 °F 4.5 °F 10.4 °F 68% 30.36 in 10.0 mi North 17.3 mph 29.9 mph N/A   Mostly Cloudy
9:52 PM 19.9 °F 3.2 °F 10.0 °F 65% 30.39 in 10.0 mi North 23.0 mph 34.5 mph N/A   Mostly Cloudy
10:23 PM 19.4 °F 5.0 °F 10.4 °F 68% 30.38 in 10.0 mi NNW 16.1 mph - N/A   Mostly Cloudy
10:52 PM 19.0 °F 5.6 °F 10.0 °F 68% 30.41 in 10.0 mi NNW 13.8 mph - N/A   Overcast
11:22 PM 17.6 °F 5.7 °F 10.4 °F 73% 30.39 in 10.0 mi NNW 10.4 mph - N/A   Mostly Cloudy
11:44 PM 17.6 °F 5.7 °F 10.4 °F 73% 30.40 in 10.0 mi NNW 10.4 mph - N/A   Partly Cloudy
11:52 PM 17.1 °F 3.6 °F 10.0 °F 74% 30.44 in 10.0 mi NNW 12.7 mph - N/A   Partly Cloudy